Oakes, ND

12:27 AM CST on November 18, 2019 (GMT -0600)
Oakes

Weather History for K2D5 - September, 2019

Change the Weather History Date:

Saturday, September 14, 2019

  Actual Average (KP67) Record (KP67)
Temperature  
Mean Temperature 56 °F -  
Max Temperature 69 °F 72 °F 81 °F (1997)
Min Temperature 44 °F 47 °F 39 °F (1996)
Degree Days  
Heating Degree Days 8    
Growing Degree Days 6 (Base 50)    
Moisture  
Dew Point 56 °F    
Average Humidity 94    
Maximum Humidity 100    
Minimum Humidity 73    
Precipitation  
Precipitation 0.00 in - - ()
Sea Level Pressure  
Sea Level Pressure 29.95 in    
Wind  
Wind Speed 6 mph (South)    
Max Wind Speed 10 mph    
Max Gust Speed 16 mph    
Visibility 9 miles    
Events Fog    
Averages and records for this station are not official NWS values.
T = Trace of Precipitation, MM = Missing Value Source: NWS Daily Summary

Daily Weather History Graph

Daily Weather History Graph

Search for Another Location

Airport or City:

Astronomy

Sep. 14, 2019 Rise Set
Actual Time 7:08 AM CDT 7:46 PM CDT
Civil Twilight 6:38 AM CDT 8:16 PM CDT
Nautical Twilight 6:02 AM CDT 8:51 PM CDT
Astronomical Twilight 5:25 AM CDT 9:29 PM CDT
Moon 8:27 PM CDT (9/14) 7:21 AM CDT (9/14)
Length of Visible Light 13h 37m
Length of Day
12h 37m
Full, 100% of the Moon is Illuminated
Sep 14
Full
Sep 21
Last Quarter
Sep 28
New
Oct 5
First Quarter
Oct 13
Full

Hourly Weather History & Observations

Time (CDT) Temp. Windchill Dew Point Humidity Pressure Visibility Wind Dir Wind Speed Gust Speed Precip Events Conditions
12:15 AM 46.4 °F 42.9 °F 46.4 °F 100% 30.03 in 9.0 mi South 6.9 mph - N/A   Clear
12:35 AM 46.4 °F 42.9 °F 46.4 °F 100% 30.03 in 9.0 mi South 6.9 mph - N/A   Clear
12:55 AM 48.2 °F - 48.2 °F 100% 30.03 in 10.0 mi South 4.6 mph - N/A   Clear
1:15 AM 46.4 °F 44.3 °F 46.4 °F 100% 30.02 in 9.0 mi SSE 4.6 mph - N/A   Clear
1:55 AM 46.4 °F 44.3 °F 46.4 °F 100% 30.01 in 9.0 mi SSE 4.6 mph - N/A   Clear
2:15 AM 46.4 °F 44.3 °F 46.4 °F 100% 30.02 in 8.0 mi SSW 4.6 mph - N/A   Clear
2:35 AM 46.4 °F 44.3 °F 46.4 °F 100% 30.02 in 8.0 mi South 4.6 mph - N/A   Partly Cloudy
2:55 AM 44.6 °F 41.4 °F 44.6 °F 100% 30.01 in 6.0 mi South 5.8 mph - N/A   Clear
3:15 AM 46.4 °F 42.9 °F 46.4 °F 100% 30.01 in 8.0 mi South 6.9 mph - N/A   Clear
3:35 AM - - - N/A% 30.01 in 7.0 mi SSE 5.8 mph - N/A   Clear
3:55 AM 46.4 °F 44.3 °F 46.4 °F 100% 30.00 in 8.0 mi SE 4.6 mph - N/A   Clear
4:15 AM 44.6 °F 40.2 °F 44.6 °F 100% 29.99 in 9.0 mi SE 8.1 mph - N/A   Clear
4:35 AM 46.4 °F 42.4 °F 46.4 °F 100% 29.98 in 10.0 mi ESE 8.1 mph - N/A   Clear
4:55 AM 46.4 °F 42.4 °F 46.4 °F 100% 29.98 in 10.0 mi SE 8.1 mph - N/A   Clear
5:15 AM 46.4 °F 42.9 °F 46.4 °F 100% 29.97 in 10.0 mi SE 6.9 mph - N/A   Clear
5:35 AM 46.4 °F 44.3 °F 46.4 °F 100% 29.97 in 9.0 mi SE 4.6 mph - N/A   Clear
5:55 AM 46.4 °F 43.5 °F 46.4 °F 100% 29.96 in 10.0 mi ESE 5.8 mph - N/A   Clear
6:15 AM 46.4 °F 43.5 °F 46.4 °F 100% 29.96 in 9.0 mi East 5.8 mph - N/A   Clear
6:35 AM 46.4 °F 43.5 °F 46.4 °F 100% 29.96 in 9.0 mi ESE 5.8 mph - N/A   Clear
6:55 AM 46.4 °F 44.3 °F 46.4 °F 100% 29.96 in 9.0 mi East 4.6 mph - N/A   Clear
7:15 AM 44.6 °F 40.7 °F 44.6 °F 100% 29.96 in 9.0 mi East 6.9 mph - N/A   Clear
7:35 AM 46.4 °F 43.5 °F 46.4 °F 100% 29.96 in 9.0 mi East 5.8 mph - N/A   Clear
7:55 AM 48.2 °F - 48.2 °F 100% 29.96 in 10.0 mi East 4.6 mph - N/A   Clear
8:15 AM 50.0 °F - 50.0 °F 100% 29.96 in 10.0 mi East 4.6 mph - N/A   Clear
8:35 AM 50.0 °F - 50.0 °F 100% 29.96 in 10.0 mi Calm Calm - N/A   Clear
8:55 AM 53.6 °F - 53.6 °F 100% 29.96 in 10.0 mi Calm Calm - N/A   Clear
9:15 AM 55.4 °F - 55.4 °F 100% 29.98 in 10.0 mi WNW 5.8 mph - N/A   Clear
9:35 AM 57.2 °F - 57.2 °F 100% 29.96 in 10.0 mi SSE 6.9 mph - N/A   Clear
9:55 AM 59.0 °F - 59.0 °F 100% 29.95 in 10.0 mi SE 4.6 mph - N/A   Clear
10:15 AM 59.0 °F - 59.0 °F 100% 29.94 in 10.0 mi SE 6.9 mph 15.0 mph N/A   Clear
10:35 AM 60.8 °F - 59.0 °F 94% 29.94 in 10.0 mi SSE 5.8 mph - N/A   Clear
10:55 AM 60.8 °F - 59.0 °F 94% 29.93 in 10.0 mi SSE 8.1 mph - N/A   Clear
11:15 AM 62.6 °F - 59.0 °F 88% 29.94 in 10.0 mi SE 6.9 mph 16.1 mph N/A   Scattered Clouds
11:35 AM 62.6 °F - 57.2 °F 82% 29.93 in 10.0 mi SSE 8.1 mph - N/A   Scattered Clouds
11:55 AM 62.6 °F - 57.2 °F 82% 29.93 in 10.0 mi SE 9.2 mph - N/A   Clear
12:15 PM 64.4 °F - 59.0 °F 83% 29.93 in 10.0 mi SSE 8.1 mph - N/A   Clear
12:55 PM 66.2 °F - 59.0 °F 78% 29.93 in 10.0 mi South 8.1 mph - N/A   Clear
1:15 PM 68.0 °F - 60.8 °F 78% 29.93 in 10.0 mi SSE 5.8 mph - N/A   Clear
1:35 PM 68.0 °F - 59.0 °F 73% 29.92 in 10.0 mi SSE 6.9 mph - N/A   Clear
2:15 PM 68.0 °F - 60.8 °F 78% 29.92 in 10.0 mi South 6.9 mph - N/A   Partly Cloudy
2:35 PM 68.0 °F - 60.8 °F 78% 29.92 in 10.0 mi SSW 6.9 mph - N/A   Clear
2:55 PM 68.0 °F - 62.6 °F 83% 29.92 in 10.0 mi SSW 6.9 mph - N/A   Partly Cloudy
3:15 PM 68.0 °F - 62.6 °F 83% 29.91 in 10.0 mi SSW 8.1 mph - N/A   Partly Cloudy
3:35 PM 69.8 °F - 62.6 °F 78% 29.91 in 10.0 mi SSW 10.4 mph - N/A   Clear
3:55 PM 69.8 °F - 62.6 °F 78% 29.91 in 10.0 mi SSW 6.9 mph - N/A   Scattered Clouds
4:15 PM 69.8 °F - 62.6 °F 78% 29.91 in 10.0 mi SW 8.1 mph - N/A   Clear
4:35 PM 69.8 °F - 62.6 °F 78% 29.91 in 10.0 mi SSW 6.9 mph - N/A   Scattered Clouds
4:55 PM 69.8 °F - 64.4 °F 83% 29.91 in 10.0 mi South 9.2 mph - N/A   Mostly Cloudy
5:15 PM 69.8 °F - 64.4 °F 83% 29.90 in 10.0 mi SSW 8.1 mph - N/A   Scattered Clouds
5:55 PM 69.8 °F - 64.4 °F 83% 29.90 in 10.0 mi SSW 6.9 mph - N/A   Clear
6:15 PM 69.8 °F - 66.2 °F 88% 29.91 in 10.0 mi SSW 4.6 mph - N/A   Partly Cloudy
6:35 PM 69.8 °F - 66.2 °F 88% 29.90 in 9.0 mi SSW 4.6 mph - N/A   Partly Cloudy
6:55 PM 69.8 °F - 66.2 °F 88% 29.91 in 10.0 mi SW 4.6 mph - N/A   Partly Cloudy
7:15 PM 68.0 °F - 66.2 °F 94% 29.91 in 9.0 mi SW 5.8 mph - N/A   Partly Cloudy
7:35 PM 68.0 °F - 68.0 °F 100% 29.91 in 7.0 mi SW 5.8 mph - N/A   Clear
7:55 PM 66.2 °F - 66.2 °F 100% 29.92 in 6.0 mi SW 5.8 mph - N/A   Clear
8:15 PM 64.4 °F - 64.4 °F 100% 29.91 in 8.0 mi SW 5.8 mph - N/A   Clear
8:35 PM 62.6 °F - 62.6 °F 100% 29.91 in 10.0 mi SW 6.9 mph - N/A   Clear
8:55 PM 64.4 °F - 64.4 °F 100% 29.92 in 9.0 mi SW 6.9 mph - N/A   Clear
9:15 PM 62.6 °F - 62.6 °F 100% 29.91 in 10.0 mi SW 5.8 mph - N/A   Clear
9:55 PM 59.0 °F - 59.0 °F 100% 29.93 in 9.0 mi Calm Calm - N/A   Clear
10:15 PM 57.2 °F - 57.2 °F 100% 29.93 in 5.0 mi South 3.5 mph - N/A   Clear
10:35 PM 57.2 °F - 57.2 °F 100% 29.93 in 1.2 mi South 4.6 mph - N/A   Clear
10:55 PM 55.4 °F - 55.4 °F 100% 29.93 in 0.2 mi SSW 3.5 mph - N/A Fog Fog
11:15 PM 57.2 °F - 57.2 °F 100% 29.93 in 0.8 mi South 3.5 mph - N/A   Mist
11:35 PM 55.4 °F - 55.4 °F 100% 29.93 in 1.2 mi South 4.6 mph - N/A   Clear
11:55 PM 55.4 °F - 55.4 °F 100% 29.93 in 7.0 mi SSW 3.5 mph - N/A   Clear